Location: *
(46.1333°S, 161.2167°W)
Time: 04:27:09
(UTC+00:00)

Okean-O - Pass Details

Date: 15 July 2020
Orbit: 638 x 641 km, 98.2° (Epoch: 10 August)

Event Time Altitude Azimuth Distance (km) Brightness Sun altitude
Rises 17:42:07 0° 350° (N) 2,941 6.2 -6.9°
Reaches altitude 10° 17:44:30 10° 340° (NNW) 2,041 5.3 -6.5°
Maximum altitude 17:48:29 32° 276° (W) 1,120 3.5 -5.9°
Drops below altitude 10° 17:52:32 10° 213° (SSW) 2,069 4.7 -5.2°
Sets 17:54:58 0° 202° (SSW) 2,989 5.6 -4.9°
